COSMOS 1275 DEB

Satellite information

Favourite Embed

Satellite Type and Status

DEBRISIN ORBIT

Key statistics

Satellite COSMOS 1275 DEB at a glance.

Uptime

16104

Days in orbit

Revolutions

≈ 14.0

Per day

Orbit

LEO

Low Earth Orbit

Inclination

82.9

Latest

Satellite identification and parameters

Extended collection of information and parameters for COSMOS 1275 DEB.

Object identification

Identified? True

Debris? True

Object name: COSMOS 1275 DEB

International designator: 1981-053ER

Object number (NORAD): 13019

Object ID (CCSDS): 13019

Country: COMMONWEALTH OF INDEPENDENT STATES (CIS)

Current information (Y/N): Y

RCS size: SMALL

Orbital parameters

Period: 102.807 minutes

Inclination: 82.9413 deg

SMA: 7269.557 km

Apoapsis: 941.947 km

Periapsis: 840.898 km

RAAN: 356.1138 deg

Eccentricy: 0.0069502

Argument of periapsis: 232.0951 deg

Mean anomaly: 279.901 deg

Mean motion: 14.00686041 rev/day

Mean motion (dot): 0.00001337 rev/day2

B* drag term: 0.00086991 1/REarth

Two-line elements (TLE)

Creation date: July 6, 2025, 10:56 p.m.

Reference frame: TEME

Reference center: EARTH

Epoch: July 6, 2025, 10:07 p.m. UTC

TLE line 0: 0 COSMOS 1275 DEB

TLE line 1: 1 13019U 81053ER 25187.92175502 .00001337 00000-0 86991-3 0 9995

TLE line 2: 2 13019 82.9413 356.1138 0069502 232.0951 279.9010 14.00686041198314

Live tracking on map

Real-time ground track for satellite COSMOS 1275 DEB.

In-orbit conjunctions

A list of the most updated potential collisions computed for object COSMOS 1275 DEB.

Target Orbit TCA Probability of collision Miss distance Type
THORAD AGENA D DEB SSO 2025-02-13 17:05:38 0.000109091 238.0 (m) DEBRIS
NOAA 16 DEB SSO 2024-11-13 23:00:12 0.0001665659 336.0 (m) DEBRIS
ELECTRON KICK STAGE R/B SSO 2024-09-02 01:37:37 0.000103238 674.0 (m) ROCKET BODY
SL-16 R/B LEO 2024-08-29 12:23:38 0.000112898 920.0 (m) ROCKET BODY

Associated space launch

Navigation satellite providing location information for the Tsiklon-B navigation system

COSMOS 1275 DEB was lifted into orbit during the mission ‘Kosmos-3M | Parus 27’, on board a Kosmos-3M space rocket.

The launch took place on June 4, 1981, 3:41 p.m. from 132/2.

For more information about the launch, click the button.

Launch to space Kosmos-3M | Parus 27
Kosmos-3M | Parus 27

Agency: N/A

Status: Launch Successful

Launch date: June 4, 1981, 3:41 p.m. UTC

Rocket: Kosmos-3M

Launch pad: 132/2

Location: Plesetsk Cosmodrome, Russian Federation

...

Latest news about this satellite

There are no fresh news available about this satellite. Check back as we update our databases every day.


Newsletter sign-up

Weekly statistics, charts and insights to help you stay on top of the space industry.